Simultaneous Nadir Overpasses (SNOs) Predictions

Prediction of SNOs between LANDSAT-8 and METOP-B Satellite Orbit:

Table of predicted SNOs for the next 14.0 days since TLE Epoch: 3/19/2022
Index Date (LANDSAT-8) Time (LANDSAT-8) Lat,Lon (LANDSAT-8) SZA (LANDSAT-8 ) Date (METOP-B) Time (METOP-B) Lat,Lon (METOP-B) SZA (METOP-B ) Distance(km) Time Diff (sec)
1 03/20/2022 06:35:39 -81.17, -58.66 96.81 03/20/2022 06:35:23 -81.17, -58.50 96.80 2.67 16
2 03/20/2022 07:25:05 81.18, 109.07 83.19 03/20/2022 07:26:03 81.18, 109.02 83.21 0.74 58
3 03/23/2022 02:09:52 -81.17, 7.80 97.90 03/23/2022 02:09:44 -81.17, 7.81 97.90 0.41 8
4 03/23/2022 02:59:18 81.18, 175.49 82.10 03/23/2022 03:00:24 81.18, 175.33 82.11 2.86 66
5 03/25/2022 20:54:38 81.15, -93.81 80.98 03/25/2022 20:53:24 81.15, -93.65 80.97 2.80 74
6 03/25/2022 21:44:04 -81.17, 74.18 98.99 03/25/2022 21:44:04 -81.17, 74.08 99.00 1.75 0
7 03/25/2022 22:33:29 81.19,-117.79 81.06 03/25/2022 22:34:42 81.20,-117.64 81.11 2.48 73
8 03/28/2022 16:28:50 81.16, -27.17 79.93 03/28/2022 16:27:44 81.16, -27.03 79.92 2.35 66
9 03/28/2022 17:18:17 -81.16, 140.48 100.09 03/28/2022 17:18:25 -81.16, 140.32 100.10 2.69 8
10 03/31/2022 12:03:03 81.14, 39.03 78.83 03/31/2022 12:02:05 81.15, 39.17 78.82 2.69 58



Historial Predications of SNOs between LANDSAT-8 and METOP-B
